Wind_Speed
66 67 69 67 66 64 63 62 62 59 57 57 57 55 50 47 47 44 41 38 36 32 31 30 28 26 25 23 23 22 22 22 21 21 20 21 21 21 21 21 22 22 22 23
67 69 66 64 64 64 65 65 63 61 59 60 61 59 55 52 51 48 45 43 39 36 35 33 31 29 27 26 25 25 25 25 24 24 24 24 23 22 22 22 22 23 24 25
66 65 62 63 63 64 64 65 63 62 60 61 63 65 60 55 54 52 49 46 43 40 37 36 34 32 31 29 28 27 27 28 27 27 27 26 25 24 24 24 26 26 27 27
61 61 62 62 63 63 63 61 60 60 60 61 63 68 64 59 57 55 51 49 45 43 40 39 37 35 33 32 32 31 31 30 30 30 28 27 27 26 27 28 29 29 29 30
61 60 60 61 61 60 59 57 58 58 58 60 62 69 69 62 60 56 53 50 47 45 43 41 40 38 37 36 36 35 34 33 32 31 30 30 29 29 30 31 31 32 33 33
62 59 58 56 55 57 57 57 57 57 58 62 63 67 73 65 60 56 53 51 49 47 46 45 43 42 41 40 39 37 36 35 34 34 33 32 32 32 33 34 34 35 35 36
64 62 60 57 57 58 58 58 59 60 61 65 63 67 73 65 59 56 54 52 51 50 49 48 46 45 44 43 42 41 40 38 37 37 36 35 35 35 36 36 37 37 37 38
65 63 61 61 60 59 60 59 61 62 64 63 64 67 67 63 60 58 55 53 52 52 52 50 48 47 46 45 45 44 43 42 41 40 39 38 38 38 38 38 39 40 40 40
64 63 59 59 58 59 60 61 60 62 64 65 68 66 65 63 60 57 54 52 51 51 51 51 50 50 49 48 47 47 46 45 44 43 42 42 42 41 40 41 42 42 42 42
63 63 61 59 58 60 61 60 60 62 65 67 68 67 63 59 57 55 52 50 49 49 50 51 51 51 51 50 50 49 48 48 47 46 46 45 44 44 44 44 44 44 45 45
61 63 63 64 64 60 59 61 62 63 65 65 67 65 55 54 53 52 51 50 50 51 51 51 52 51 52 52 52 51 50 50 49 49 48 47 47 46 47 47 46 47 47 47
58 60 62 62 63 62 62 63 64 65 65 65 68 66 53 53 53 52 52 50 50 50 51 51 52 52 53 53 53 52 52 52 51 51 51 50 49 49 49 48 48 49 50 50
56 61 61 62 63 64 66 64 63 64 65 66 66 63 55 54 52 52 51 49 48 48 49 50 51 52 53 54 54 54 54 54 54 54 54 53 53 52 52 51 51 52 52 53
54 59 61 61 61 61 63 65 64 64 65 66 65 62 58 54 52 50 50 49 48 48 49 50 51 52 53 54 55 55 55 56 56 56 56 55 55 55 55 55 55 55 55 55
54 56 58 59 58 58 58 61 65 67 66 66 63 62 57 54 52 50 50 50 50 50 49 50 50 51 51 52 53 55 55 56 56 56 56 56 57 57 57 57 57 57 56 56
54 57 58 58 58 59 60 60 62 65 65 65 64 63 56 55 55 54 52 52 52 51 51 51 50 51 51 51 52 53 54 55 56 56 57 57 58 58 58 58 58 58 57 57
51 54 57 60 60 62 65 59 60 64 65 63 63 60 58 59 58 57 56 56 55 54 53 52 53 52 52 52 53 53 54 54 55 56 57 57 57 58 58 58 58 58 58 57
49 50 53 56 58 63 62 59 61 64 65 64 63 59 57 57 58 58 58 59 58 56 55 55 54 54 53 52 52 53 53 54 54 55 55 56 56 57 57 57 57 57 57 56
48 48 50 54 57 61 60 59 60 63 64 63 62 60 58 58 58 59 59 60 59 58 57 56 56 56 55 53 53 53 53 54 54 54 54 55 55 55 56 56 55 55 55 55
47 49 50 53 56 58 56 54 55 59 64 61 61 60 60 60 62 59 55 58 59 59 59 58 58 57 56 55 54 54 53 53 53 53 53 53 53 53 53 53 53 53 53 53
48 48 50 51 53 54 51 52 54 58 58 56 58 58 60 61 61 58 56 57 58 58 59 59 58 57 57 56 56 55 54 54 53 53 53 52 52 52 52 52 52 52 52 52
46 47 48 49 51 50 47 50 52 52 51 53 55 57 59 60 60 60 60 59 58 57 58 59 58 57 57 57 57 56 55 54 53 53 52 52 52 52 52 52 52 52 52 52
45 46 45 47 48 46 47 48 48 49 49 50 52 55 57 57 58 58 60 62 62 60 59 59 59 59 59 59 58 56 55 55 55 54 53 52 53 53 53 53 53 53 53 53
43 44 45 45 45 44 46 47 47 48 48 49 50 51 54 55 56 57 57 58 61 61 61 61 61 61 60 59 58 57 57 57 56 55 54 54 53 53 53 53 54 53 52 52
44 44 44 44 43 44 44 45 46 48 48 48 49 50 51 54 55 55 55 56 58 59 60 61 61 61 59 59 60 59 58 57 57 56 55 54 54 54 54 54 54 53 53 52
44 45 45 44 43 44 44 44 45 47 48 48 49 49 50 51 53 53 54 56 57 58 60 60 60 60 60 60 59 59 59 58 57 56 55 54 54 54 54 54 53 53 53 53
Wind_Direction
233 235 236 238 240 241 243 242 242 243 243 244 245 245 243 243 244 243 244 245 246 247 248 249 249 251 252 253 255 255 256 256 257 257 256 256 255 255 256 257 259 261 262 261
234 236 238 239 239 240 242 243 243 243 243 243 244 244 243 242 243 243 243 244 246 246 248 250 251 251 251 252 253 254 255 256 257 256 255 256 258 260 260 261 261 262 263 263
236 237 237 237 238 240 241 243 244 245 244 244 245 244 243 242 243 244 244 245 247 248 249 251 252 252 251 252 253 253 254 255 256 257 258 259 260 261 261 260 259 260 262 263
234 234 235 236 238 240 241 243 244 245 244 244 245 247 242 242 243 244 246 247 248 249 250 251 252 253 252 251 252 252 253 255 256 258 260 261 260 260 259 259 261 263 265 266
232 233 234 236 238 239 242 243 244 245 245 246 245 248 243 241 242 244 246 248 249 249 250 251 251 252 252 251 252 253 254 256 257 259 259 260 261 260 260 261 263 264 265 266
231 231 232 234 235 237 239 241 242 244 245 246 245 248 246 241 242 245 246 248 249 249 249 249 250 251 252 252 253 254 256 256 257 258 258 258 259 259 260 262 262 264 265 266
230 231 231 231 232 234 235 237 240 242 243 246 246 247 247 244 243 244 245 247 248 249 249 249 249 250 251 252 253 254 255 256 257 257 257 257 258 259 260 261 262 264 266 266
231 232 233 234 235 237 237 238 240 243 247 248 248 248 248 247 245 245 246 247 248 249 249 250 250 250 250 252 253 254 255 256 256 257 257 257 257 258 260 261 263 264 265 266
232 234 234 236 236 236 236 237 240 244 247 249 250 250 248 247 248 248 247 247 247 247 248 249 249 250 250 251 252 254 254 255 256 256 257 258 258 259 259 260 261 263 265 266
234 235 234 233 234 233 235 236 237 240 243 247 250 249 248 248 250 250 249 247 246 245 246 247 248 249 250 250 251 252 253 254 255 256 257 258 259 259 259 259 261 262 263 264
233 235 234 233 233 234 234 234 236 240 244 246 249 250 247 248 249 249 249 248 246 245 245 246 246 248 249 249 250 251 252 253 254 255 256 257 258 258 259 259 260 261 262 264
232 233 234 234 235 235 235 235 237 239 243 246 249 249 245 247 248 249 250 250 248 247 246 246 247 247 248 248 249 249 251 252 253 254 255 256 256 257 258 259 260 261 262 263
230 232 235 235 234 234 235 235 237 240 243 246 248 250 247 249 250 250 252 252 250 248 247 247 247 247 247 248 248 249 250 250 251 252 254 255 256 257 257 258 259 261 262 263
229 232 234 236 237 238 239 237 236 238 241 244 246 248 246 247 249 251 252 251 249 248 248 248 248 248 248 248 248 249 250 250 251 252 253 254 256 256 257 258 259 260 262 264
230 233 235 236 236 239 239 239 239 240 241 244 245 245 244 246 249 249 249 249 249 248 248 248 247 247 247 247 248 249 250 250 251 252 253 254 255 256 257 258 259 261 262 264
232 235 237 238 237 239 240 240 240 241 243 246 247 245 243 245 246 246 247 248 249 249 248 246 246 247 247 247 248 248 249 251 252 253 254 255 255 257 258 259 260 262 263 264
234 237 239 241 241 243 243 241 242 243 244 246 248 247 245 244 245 247 248 248 248 247 247 247 247 247 248 248 248 250 250 252 252 253 254 255 256 257 258 259 261 262 263 265
235 238 241 243 244 246 246 245 246 248 248 248 249 246 244 245 246 246 245 246 246 246 247 248 247 247 247 248 249 250 251 252 253 254 255 256 257 257 258 260 261 262 264 265
237 239 242 243 246 248 247 246 249 251 250 249 251 250 246 246 246 244 245 246 246 245 246 246 246 247 247 248 248 249 251 252 253 254 255 256 257 258 259 260 262 263 264 266
240 243 245 245 248 249 247 248 250 251 252 249 251 250 248 247 246 245 245 246 246 245 245 245 246 247 248 248 249 250 251 252 254 255 255 256 258 259 260 260 262 263 264 266
244 246 248 249 251 250 249 250 251 252 252 251 251 250 248 247 248 246 244 244 244 244 244 245 246 247 248 249 249 251 252 253 254 255 257 258 259 259 260 261 262 263 264 265
246 248 249 251 252 252 252 253 253 254 252 251 249 249 249 248 247 245 243 243 242 244 244 245 245 246 248 250 251 252 253 254 254 255 256 257 259 260 261 262 263 263 264 265
246 249 251 251 253 254 253 253 252 251 249 248 248 248 248 247 246 244 243 242 242 244 245 245 246 247 249 250 251 252 253 253 254 255 256 258 261 261 262 262 263 264 265 266
246 247 249 251 252 252 252 252 251 250 250 249 248 249 248 247 246 246 245 244 244 244 246 247 248 248 249 250 251 252 253 253 254 256 257 259 260 261 262 262 263 263 264 266
247 246 249 252 253 253 253 253 253 251 250 249 248 248 248 248 245 244 244 243 243 244 245 246 247 248 249 249 250 251 252 253 255 256 257 259 260 261 261 261 262 262 264 266
248 249 249 252 254 255 254 253 253 253 251 250 249 248 248 248 247 245 243 243 244 244 244 244 245 247 247 248 250 251 252 253 255 256 258 259 260 260 260 261 262 263 265 266
Height
5696 5702 5709 5721 5729 5737 5742 5748 5755 5763 5768 5772 5776 5782 5791 5796 5800 5806 5811 5815 5820 5824 5826 5828 5830 5833 5835 5837 5839 5840 5841 5842 5843 5844 5844 5845 5845 5846 5847 5847 5848 5849 5849 5850
5684 5691 5707 5713 5718 5724 5729 5736 5744 5750 5756 5760 5764 5770 5779 5785 5791 5797 5803 5808 5812 5817 5819 5822 5824 5827 5829 5832 5833 5835 5836 5836 5838 5839 5839 5840 5841 5842 5842 5843 5844 5844 5844 5844
5674 5688 5696 5700 5706 5712 5718 5727 5735 5740 5744 5747 5751 5756 5767 5776 5781 5788 5794 5800 5805 5809 5812 5815 5817 5820 5823 5825 5827 5828 5829 5830 5832 5832 5833 5835 5836 5837 5837 5838 5838 5838 5838 5838
5663 5675 5682 5687 5695 5703 5709 5719 5723 5727 5730 5734 5739 5741 5757 5765 5771 5779 5786 5791 5797 5801 5804 5807 5810 5813 5815 5818 5819 5821 5822 5824 5825 5826 5828 5829 5830 5831 5832 5831 5831 5832 5832 5832
5654 5665 5671 5676 5688 5695 5702 5708 5712 5715 5717 5720 5725 5728 5741 5754 5761 5771 5778 5783 5788 5792 5795 5798 5801 5804 5807 5809 5811 5813 5815 5817 5818 5819 5821 5822 5823 5824 5824 5824 5825 5825 5825 5825
5644 5653 5659 5669 5679 5684 5690 5696 5699 5701 5702 5704 5714 5716 5723 5743 5755 5763 5769 5773 5777 5781 5785 5788 5791 5794 5797 5800 5802 5804 5806 5809 5810 5811 5813 5815 5816 5817 5817 5817 5817 5817 5818 5818
5631 5640 5649 5658 5665 5671 5677 5683 5686 5686 5687 5691 5704 5701 5713 5736 5746 5752 5758 5763 5766 5770 5773 5777 5781 5784 5787 5790 5792 5795 5797 5799 5801 5803 5804 5806 5807 5808 5808 5809 5809 5809 5810 5810
5621 5629 5639 5648 5655 5662 5668 5672 5675 5677 5679 5685 5688 5689 5708 5724 5732 5739 5746 5752 5755 5759 5762 5766 5769 5773 5776 5779 5781 5784 5787 5790 5791 5793 5795 5796 5797 5798 5800 5800 5801 5800 5801 5801
5611 5620 5631 5638 5646 5651 5655 5658 5666 5668 5668 5671 5673 5682 5697 5710 5719 5727 5735 5740 5744 5747 5750 5754 5757 5761 5764 5767 5770 5773 5776 5778 5780 5782 5784 5786 5787 5788 5790 5790 5790 5791 5791 5791
5602 5610 5619 5627 5630 5635 5643 5650 5652 5653 5655 5657 5661 5670 5687 5702 5709 5716 5722 5727 5731 5734 5737 5740 5744 5748 5751 5755 5758 5760 5763 5766 5769 5770 5772 5774 5776 5777 5778 5779 5780 5780 5781 5780
5591 5598 5606 5611 5616 5625 5631 5635 5638 5642 5644 5647 5649 5662 5683 5691 5697 5702 5707 5712 5716 5720 5724 5727 5731 5735 5738 5741 5744 5748 5751 5754 5756 5759 5761 5763 5764 5765 5766 5767 5769 5769 5769 5769
5581 5585 5591 5599 5608 5614 5617 5622 5628 5630 5633 5636 5639 5652 5673 5679 5684 5688 5694 5699 5703 5707 5710 5714 5718 5721 5725 5728 5731 5735 5738 5741 5744 5746 5748 5750 5751 5753 5754 5755 5756 5757 5757 5757
5570 5573 5579 5585 5592 5597 5601 5609 5615 5619 5622 5623 5627 5642 5663 5667 5671 5676 5681 5685 5689 5693 5697 5701 5704 5708 5711 5715 5718 5721 5724 5728 5730 5732 5735 5737 5738 5740 5741 5743 5743 5743 5744 5744
5558 5560 5567 5573 5581 5587 5591 5598 5603 5605 5606 5611 5617 5631 5647 5655 5660 5664 5668 5672 5675 5679 5683 5687 5691 5694 5698 5701 5704 5708 5711 5713 5716 5718 5721 5723 5725 5727 5728 5729 5729 5730 5730 5731
5545 5550 5556 5563 5569 5573 5577 5583 5588 5591 5595 5600 5610 5618 5633 5644 5648 5651 5654 5658 5662 5666 5670 5673 5677 5680 5684 5687 5691 5694 5697 5699 5702 5705 5707 5709 5711 5712 5714 5715 5716 5716 5717 5717
5535 5540 5545 5550 5557 5560 5562 5569 5575 5579 5585 5590 5596 5604 5621 5629 5632 5636 5641 5644 5648 5652 5656 5659 5663 5667 5670 5674 5676 5680 5683 5686 5688 5691 5693 5695 5696 5698 5700 5701 5702 5702 5703 5703
5526 5530 5534 5539 5545 5544 5547 5559 5565 5569 5574 5579 5583 5596 5609 5612 5618 5623 5627 5629 5633 5637 5641 5645 5649 5652 5656 5659 5662 5666 5669 5672 5674 5677 5679 5681 5682 5684 5685 5686 5687 5688 5688 5688
5517 5521 5523 5527 5531 5530 5542 5552 5554 5557 5562 5568 5572 5583 5591 5597 5602 5606 5609 5613 5618 5623 5627 5631 5634 5638 5641 5644 5648 5651 5654 5657 5660 5663 5664 5666 5668 5669 5670 5672 5673 5674 5674 5674
5508 5510 5512 5515 5516 5519 5530 5540 5544 5545 5548 5558 5561 5568 5575 5580 5581 5586 5596 5600 5604 5608 5612 5615 5619 5623 5626 5630 5633 5636 5640 5643 5646 5648 5650 5652 5654 5655 5656 5658 5659 5659 5660 5660
5497 5499 5502 5504 5505 5509 5523 5531 5531 5529 5531 5546 5549 5553 5559 5562 5562 5575 5585 5584 5588 5592 5596 5600 5604 5608 5612 5616 5619 5623 5626 5629 5632 5634 5636 5638 5640 5641 5642 5644 5644 5645 5645 5646
5486 5487 5489 5492 5493 5498 5512 5516 5515 5516 5524 5535 5535 5538 5543 5545 5551 5562 5566 5567 5572 5576 5581 5585 5589 5593 5598 5602 5604 5608 5613 5616 5619 5620 5622 5624 5626 5627 5628 5629 5630 5631 5631 5631
5475 5477 5480 5482 5483 5492 5502 5501 5503 5506 5513 5516 5519 5522 5526 5531 5536 5541 5547 5552 5557 5561 5566 5571 5574 5579 5584 5587 5590 5594 5598 5602 5603 5605 5608 5610 5611 5613 5614 5615 5616 5616 5617 5617
5464 5468 5470 5472 5477 5483 5486 5488 5490 5493 5498 5501 5504 5508 5511 5516 5521 5526 5531 5536 5541 5546 5551 5555 5559 5564 5569 5572 5575 5579 5584 5586 5588 5591 5593 5595 5597 5598 5600 5601 5601 5602 5602 5602
5454 5457 5458 5461 5466 5471 5474 5475 5478 5481 5484 5488 5490 5494 5497 5501 5506 5511 5515 5520 5526 5531 5536 5540 5544 5549 5554 5557 5561 5565 5568 5571 5573 5576 5579 5580 5582 5583 5584 5585 5586 5587 5587 5587
5444 5446 5448 5451 5456 5459 5461 5463 5466 5469 5472 5475 5477 5480 5483 5487 5491 5496 5501 5505 5510 5515 5520 5525 5529 5534 5538 5542 5545 5549 5553 5556 5558 5561 5563 5565 5566 5568 5569 5570 5571 5571 5572 5572
5434 5436 5438 5441 5445 5447 5449 5451 5454 5456 5459 5462 5465 5468 5470 5473 5477 5482 5486 5491 5495 5500 5505 5509 5514 5519 5523 5527 5530 5534 5537 5540 5542 5545 5547 5549 5551 5552 5553 5554 5555 5556 5557 5557